RH
9 7 10 12 11 10 10 10 12 12 10 10 8 7 6 6 6 6 6 6 6 6 7 12 18 19 20 18 16 14 14 16 17 17 18 18 18 18 18 18 17 17 17
17 10 8 8 10 11 10 10 10 9 7 7 7 7 7 6 6 6 6 6 6 6 6 6 6 7 10 18 22 20 19 18 15 14 13 13 13 13 14 14 14 14 14
25 11 8 8 7 8 11 12 9 7 7 7 7 7 7 7 7 7 6 6 6 6 6 6 6 7 7 7 7 10 19 23 24 23 20 20 19 19 19 20 22 21 19
32 21 8 8 7 8 9 8 7 7 7 7 8 8 8 7 7 7 7 7 6 6 6 6 6 6 7 7 7 7 7 7 8 10 11 14 17 20 22 22 21 20 19
36 29 14 8 8 10 8 8 8 8 8 8 8 7 7 6 6 6 6 6 6 6 6 6 6 7 7 7 7 8 8 7 8 8 7 7 7 7 7 7 8 10 15
41 35 21 8 8 8 9 8 8 8 8 8 7 7 7 7 6 6 6 6 6 6 6 6 7 7 7 8 9 9 9 10 10 10 11 11 10 11 11 12 11 11 11
45 39 28 10 8 8 8 8 8 8 8 7 7 7 7 6 6 6 6 6 6 6 6 6 6 6 7 7 8 10 12 13 12 12 13 13 13 13 12 12 12 12 13
49 42 31 11 9 9 9 9 8 8 7 7 7 7 7 7 7 7 6 6 6 7 7 8 9 9 10 10 10 10 11 13 14 14 13 13 13 12 12 11 11 11 11
54 42 25 11 11 10 10 9 8 8 7 7 7 8 8 7 7 6 6 6 6 5 6 5 6 8 12 13 12 12 13 14 14 13 12 11 10 9 10 9 9 9 9
57 43 22 12 12 11 10 9 8 8 8 8 8 8 7 6 7 6 4 4 4 4 4 4 5 5 5 5 5 6 7 10 12 12 11 11 11 11 13 14 15 14 14
49 41 18 12 12 11 10 9 8 8 8 9 9 8 7 7 7 7 4 4 4 4 4 4 4 4 4 4 4 4 5 6 8 12 12 12 13 14 15 15 13 11 10
40 32 15 13 13 12 10 9 8 9 9 10 9 8 8 8 7 8 7 4 4 4 4 4 4 4 4 4 4 5 5 6 7 8 8 9 8 9 8 8 8 10 10
44 22 15 14 14 12 10 9 9 10 14 12 10 9 9 10 8 7 7 6 5 5 5 5 5 5 5 6 6 7 6 8 10 9 8 8 8 10 10 9 7 4 3
34 16 17 16 14 12 10 10 12 18 22 21 11 11 14 14 8 7 8 8 7 7 6 6 6 7 7 7 6 8 10 11 11 10 9 7 5 3 3 3 3 3 3
26 30 24 16 14 12 11 12 15 17 21 19 13 18 23 19 8 7 8 8 8 7 7 7 6 6 6 6 5 7 10 10 10 7 4 4 4 4 4 5 5 5 5
43 46 20 17 14 13 14 16 22 21 17 17 16 22 22 14 8 7 8 8 8 8 8 7 6 4 4 5 6 7 9 9 6 4 4 4 4 5 6 11 10 9 10
42 25 24 18 19 20 16 22 29 20 18 14 18 20 14 11 8 7 8 9 9 9 8 7 5 5 5 6 8 11 6 5 6 6 5 5 4 5 11 11 12 12 12
32 32 31 20 21 25 22 22 23 19 15 15 15 14 12 9 7 8 9 10 11 10 8 7 6 6 9 13 11 4 7 6 7 7 4 4 4 8 12 9 10 8 8
27 21 20 24 27 27 18 16 17 16 15 14 14 10 8 7 8 10 12 13 12 10 8 7 11 15 16 10 4 5 7 6 8 5 5 5 5 11 10 6 5 7 9
29 24 23 23 20 18 16 16 15 14 14 13 10 8 8 9 12 13 13 12 11 10 8 15 21 16 7 4 5 6 6 6 9 8 11 12 12 11 8 16 14 13 6
27 24 22 21 20 19 17 15 14 15 11 10 8 8 10 13 14 13 12 10 10 10 14 23 12 5 5 5 6 5 5 7 9 9 10 19 21 23 22 20 14 6 7
20 20 20 19 18 16 15 18 16 9 9 8 9 10 14 14 12 9 6 6 6 8 14 15 6 6 5 6 7 4 5 9 14 17 22 23 18 14 10 7 6 6 13
18 18 17 17 17 18 20 11 8 8 8 10 11 13 13 11 7 6 6 6 8 8 9 8 6 6 6 7 8 4 5 8 9 9 10 10 10 9 7 7 6 11 12
18 18 18 17 20 13 8 8 8 9 11 12 14 13 9 5 5 6 7 7 11 16 13 8 7 6 7 6 7 5 4 7 7 9 12 14 12 10 8 8 10 10 17
18 18 17 12 8 8 8 9 10 11 13 15 13 8 5 5 7 7 7 8 13 16 12 8 7 7 8 6 7 8 4 5 8 9 10 11 10 11 10 9 15 26 32
10 7 7 8 8 10 11 11 12 15 15 12 7 5 5 7 6 6 8 8 10 11 9 8 7 9 8 5 6 10 5 5 6 8 9 10 9 10 10 11 12 12 29
Wind_Speed
5 3 2 2 2 2 1 2 2 2 3 4 5 5 6 7 8 9 11 12 12 13 13 13 13 13 13 12 11 11 14 17 18 18 18 18 17 17 17 17 17 17 17
6 5 4 3 3 3 1 0 1 2 3 4 4 5 6 7 8 9 11 12 13 13 14 14 14 15 15 15 14 14 13 12 12 13 15 17 18 19 20 21 21 21 21
6 6 5 5 4 4 3 2 0 1 2 4 5 7 8 10 11 11 12 14 15 15 15 16 16 16 17 16 16 16 17 17 16 16 16 17 17 18 18 18 18 18 19
7 7 7 6 4 4 4 3 2 3 4 6 7 8 9 10 12 12 12 13 14 15 16 17 18 18 19 19 20 20 20 20 21 22 22 23 23 23 23 23 23 22 22
7 9 9 7 6 6 6 5 4 4 5 7 8 8 9 10 12 13 13 14 15 16 17 18 19 19 20 21 21 21 23 24 24 24 25 25 26 27 27 28 28 29 29
9 11 11 10 8 8 8 7 6 6 6 7 8 9 11 13 14 15 16 17 18 19 20 21 22 22 23 23 23 23 23 25 26 27 28 28 28 29 30 31 30 30 30
10 13 13 12 11 10 10 9 8 8 8 8 9 11 13 15 17 19 20 21 23 23 24 25 26 27 27 28 29 29 28 27 27 28 28 28 28 29 28 29 30 30 31
13 15 15 14 12 11 10 10 9 9 9 10 11 14 16 18 21 24 25 26 26 27 28 29 28 29 29 30 30 31 32 31 31 31 30 29 30 29 30 30 30 31 31
15 17 16 15 13 12 11 11 10 10 10 11 13 16 19 22 25 27 28 28 28 27 25 24 25 26 26 27 27 29 30 31 30 31 31 30 31 30 33 32 32 33 33
18 17 17 16 14 12 12 12 11 12 12 13 16 19 21 24 27 29 27 24 22 22 23 25 25 25 27 29 30 32 33 34 33 33 34 34 34 34 36 37 35 39 38
17 17 17 17 15 14 13 13 13 13 14 15 18 21 23 25 29 28 27 25 23 24 25 26 27 27 28 30 32 33 35 35 37 38 38 39 40 40 41 42 41 41 41
17 18 18 18 16 15 14 14 14 14 15 18 20 23 25 28 28 29 29 28 28 28 29 30 31 32 32 33 35 36 38 42 43 43 44 44 42 43 44 43 42 42 43
20 19 19 18 17 16 15 15 15 16 18 21 23 26 29 30 30 30 30 31 31 32 33 34 35 35 37 39 41 43 45 48 49 50 50 49 46 44 44 43 42 42 42
21 21 19 19 18 16 16 17 16 19 20 25 28 29 31 32 32 32 33 34 34 36 37 38 39 40 42 43 45 48 50 52 52 52 51 49 45 43 44 42 43 43 42
21 21 22 20 19 18 18 18 20 21 25 28 30 30 32 34 35 35 36 37 39 41 41 43 43 45 46 48 50 52 54 54 52 51 50 48 45 43 42 38 38 37 35
22 21 21 22 19 18 20 21 22 24 26 27 29 32 35 38 38 38 39 41 43 45 45 47 47 48 50 50 50 50 51 51 50 48 47 46 43 39 37 32 29 28 26
22 22 22 23 22 21 22 23 26 27 29 30 32 35 38 41 42 41 43 46 48 48 48 49 50 50 50 49 47 46 45 44 46 49 49 45 39 36 31 29 27 25 27
22 24 24 23 22 25 27 27 30 30 32 34 37 40 43 45 43 45 48 50 51 51 52 52 51 48 44 42 42 39 38 44 48 52 50 45 37 30 29 28 30 28 27
24 24 24 25 26 28 30 31 33 35 36 38 42 43 46 46 47 50 52 53 54 54 53 50 45 41 40 41 40 35 39 44 45 45 36 28 26 26 28 29 27 24 23
26 26 27 29 29 30 32 34 35 37 40 42 44 45 46 49 53 55 57 57 57 55 50 44 41 40 40 40 36 35 39 39 36 28 20 17 18 23 24 22 22 18 13
28 29 29 30 30 32 34 35 37 40 42 43 44 47 51 55 57 59 60 59 56 51 47 42 40 38 38 36 35 32 36 34 27 22 17 12 14 16 17 16 13 12 13
29 30 30 30 32 34 35 38 40 40 41 43 47 51 56 58 59 59 59 60 57 51 47 41 38 37 37 34 33 30 30 29 22 19 14 12 12 12 11 10 12 12 14
29 30 32 33 33 36 38 39 40 42 43 47 52 56 58 57 55 59 62 62 58 51 45 39 36 35 33 32 31 29 26 22 16 14 13 13 12 11 11 12 13 14 16
30 31 33 34 37 39 39 40 41 45 49 53 56 57 55 54 57 51 55 51 48 42 38 35 33 32 30 29 29 27 25 24 19 15 13 13 16 14 14 14 14 16 19
31 33 36 38 37 38 39 42 46 51 54 56 56 54 55 55 44 46 51 45 39 34 29 31 31 31 29 28 28 26 24 24 23 22 19 13 14 13 14 13 14 17 18
35 36 37 37 37 40 44 48 52 55 56 55 53 55 55 39 40 41 44 41 33 29 27 29 31 30 28 26 26 26 25 24 24 24 22 20 18 15 13 13 15 16 16
Wind_Direction
25 14 357 348 341 353 31 53 66 48 25 21 18 17 16 11 4 2 3 3 4 357 346 339 332 328 325 324 326 315 291 283 283 283 282 281 278 276 273 271 270 269 269
9 344 328 321 310 296 283 319 60 43 37 35 22 7 359 350 345 345 344 345 346 346 345 343 333 322 317 316 314 311 306 304 297 289 286 285 283 280 279 276 273 272 271
357 331 306 299 297 292 276 277 84 51 350 352 350 344 341 335 334 333 332 330 330 330 329 331 331 327 322 314 304 299 299 298 295 292 288 286 285 284 285 285 284 281 278
336 321 302 290 286 276 256 248 282 322 328 337 339 338 336 334 333 332 329 326 322 322 322 321 322 322 321 318 313 304 295 288 286 286 286 284 283 282 281 279 279 278 277
313 306 298 282 266 253 250 260 280 299 318 328 327 328 328 327 325 324 322 319 316 316 316 313 313 314 314 314 312 310 305 297 292 287 283 281 280 279 278 278 276 274 273
300 299 289 276 263 251 255 265 277 287 300 313 319 324 324 324 324 321 320 318 316 315 317 317 314 311 311 310 308 306 304 302 299 295 292 290 287 283 281 280 277 275 274
291 292 282 269 257 253 256 262 273 284 297 306 315 321 324 325 324 322 320 321 318 316 316 315 315 315 312 311 311 312 309 304 299 295 293 291 289 287 285 286 284 283 282
281 278 273 263 255 252 256 262 270 281 291 302 315 321 323 324 323 321 321 320 318 316 315 315 314 312 311 311 310 310 310 308 303 299 295 292 290 289 286 284 284 284 283
276 273 267 258 253 250 256 264 272 280 292 304 314 319 323 323 323 323 319 315 315 316 318 320 321 322 320 316 315 312 309 306 300 296 292 290 290 290 288 285 287 287 286
270 269 264 255 250 252 257 262 272 281 293 306 316 321 325 326 326 325 322 322 323 325 328 330 328 326 321 319 318 316 311 303 297 292 290 288 286 284 284 286 286 283 284
260 262 256 249 247 250 255 263 272 285 297 311 320 324 326 329 328 323 324 322 322 322 324 321 320 316 316 315 313 308 305 302 297 293 289 287 286 285 285 286 286 285 284
258 256 247 245 248 253 260 267 278 293 305 314 322 323 327 329 325 326 321 321 317 316 314 313 311 310 306 303 302 298 296 293 291 290 287 286 286 285 284 282 283 283 281
253 249 244 245 249 256 263 274 285 299 310 317 322 324 325 325 321 320 320 319 316 314 312 310 306 303 301 298 297 296 293 290 293 291 290 289 287 284 283 284 283 281 281
248 245 247 249 252 260 269 278 292 299 312 313 321 319 319 319 316 316 317 315 313 312 309 305 302 300 298 297 296 293 292 291 292 292 290 288 287 284 282 281 281 281 282
242 248 246 246 252 258 267 281 294 299 302 304 310 315 315 316 315 314 313 313 311 309 306 304 304 302 300 298 296 294 293 293 293 291 291 290 288 285 284 284 281 282 281
250 245 246 248 255 267 275 286 291 298 303 306 309 311 313 316 315 313 311 309 306 306 307 306 306 303 301 299 299 298 297 298 297 294 291 287 285 285 283 284 281 279 275
242 240 248 253 265 272 281 287 292 297 301 304 307 308 311 315 315 312 309 307 305 306 305 305 303 302 302 302 303 303 302 300 298 295 289 284 282 282 278 279 275 275 276
238 245 251 259 268 277 280 284 290 295 298 301 304 308 311 311 310 309 306 303 304 305 305 304 304 304 305 306 305 302 302 305 304 299 288 276 274 277 276 278 277 278 272
244 249 252 261 269 274 277 282 289 294 298 302 305 308 310 310 306 303 303 304 305 306 306 304 304 304 304 305 303 303 306 311 309 309 291 262 265 271 279 278 275 273 275
245 251 259 267 273 277 279 284 289 294 299 303 307 308 307 304 303 305 306 306 305 305 303 302 302 302 304 303 306 303 309 316 320 328 313 281 271 277 279 279 276 276 267
251 257 260 268 274 279 284 288 292 297 301 304 304 302 302 303 305 307 306 304 305 304 302 300 301 301 304 305 308 307 314 320 322 329 325 307 294 285 283 278 268 265 274
252 259 266 272 278 281 285 290 295 296 299 299 299 300 303 306 307 306 305 305 303 300 298 296 300 302 303 303 309 307 315 325 326 325 318 309 298 290 281 264 271 274 277
257 263 269 274 278 285 289 291 294 296 298 296 298 302 305 306 308 308 309 307 299 292 293 295 299 300 301 301 309 306 309 316 324 327 318 310 297 291 282 279 278 282 291
261 267 272 278 282 285 288 291 293 293 293 296 301 304 304 306 308 312 321 317 308 300 297 295 297 299 296 298 307 309 303 303 304 305 306 303 299 296 285 283 286 292 294
267 270 273 276 280 284 287 288 289 291 295 299 302 303 305 307 307 318 328 324 319 308 303 298 297 296 294 299 306 307 302 294 293 298 303 298 295 288 282 280 289 298 296
269 271 274 278 282 282 284 286 289 294 298 300 301 303 303 301 308 318 330 329 321 312 306 300 298 295 294 297 303 307 302 297 288 284 288 291 291 286 281 280 287 294 297